Location: Unspecified
(0.0000°N, 0.0000°E)
Time: 20:21:59
(UTC+02:00)

Cosmos 1538 Rocket - Visible Passes

Search period start: 21 October 2014 00:00
Search period end: 30 October 2014 23:00
Orbit: 753 x 793 km, 74.0° (Epoch: 20 October)

Date Brightness Start Highest point End Pass type
(mag) Time Alt. Az. Time Alt. Az. Time Alt. Az.
21 Oct 6.8 05:42:10 10° SE 05:45:37 17° ESE 05:49:03 10° ENE visible
22 Oct 4.1 06:46:48 10° SSW 06:52:02 55° WNW 06:57:16 10° N visible
23 Oct 4.2 06:11:14 10° S 06:16:35 76° ESE 06:21:56 10° NNE visible
24 Oct 5.4 05:36:11 10° S 05:41:08 38° ESE 05:46:04 10° NE visible
25 Oct 6.4 05:01:51 10° SSE 05:05:40 20° ESE 05:09:29 10° ENE visible
25 Oct 5.0 06:43:14 10° SW 06:47:33 25° WNW 06:51:52 10° NNW visible
26 Oct 5.0 05:06:56 10° SSW 05:14:17 31° NNW 05:17:14 10° N visible
